This is the latest recevied weather packets stored in our database for station/object W4BOD. If no packets are shown the sender has not sent any weather packets the latest 10 day(s).
| Time | Temp. | Humidity | Pressure | Rain* | Wind** | Luminosity | Snow |
|---|---|---|---|---|---|---|---|
| 1777893402 | 11.67° C | 82% | 1014.5 hPa | 0 mm | - | 20 W/m² | - |
| 1777893098 | 11.67° C | 83% | 1014.3 hPa | 0 mm | - | 15 W/m² | - |
| 1777892795 | 11.67° C | 82% | 1014.2 hPa | 0 mm | - | 11 W/m² | - |
| 1777892491 | 11.11° C | 84% | 1014.2 hPa | 0 mm | - | 7 W/m² | - |
| 1777892187 | 11.11° C | 84% | 1014 hPa | 0 mm | - | 5 W/m² | - |
| 1777891884 | 11.11° C | 84% | 1014 hPa | 0 mm | - | 3 W/m² | - |
| 1777891581 | 11.11° C | 84% | 1014.1 hPa | 0 mm | - | 1 W/m² | - |
| 1777891278 | 11.11° C | 84% | 1014.1 hPa | 0 mm | - | 1 W/m² | - |
| 1777890972 | 11.67° C | 83% | 1014 hPa | 0 mm | - | 0 W/m² | - |
| 1777890667 | 11.67° C | 81% | 1014.1 hPa | 0 mm | - | 0 W/m² | - |
| 1777890363 | 12.22° C | 80% | 1014 hPa | 0 mm | - | 0 W/m² | - |
| 1777890059 | 12.22° C | 77% | 1013.9 hPa | 0 mm | - | 0 W/m² | - |
| 1777889756 | 12.22° C | 78% | 1013.9 hPa | 0 mm | - | 0 W/m² | - |
| 1777889454 | 11.67° C | 78% | 1013.8 hPa | 0 mm | - | 0 W/m² | - |
| 1777889151 | 11.67° C | 80% | 1013.8 hPa | 0 mm | - | 0 W/m² | - |
| 1777888850 | 11.67° C | 80% | 1013.9 hPa | 0 mm | - | 0 W/m² | - |
| 1777888545 | 11.67° C | 81% | 1013.9 hPa | 0 mm | - | 0 W/m² | - |
| 1777888241 | 11.67° C | 81% | 1014 hPa | 0 mm | - | 0 W/m² | - |
| 1777887938 | 11.67° C | 81% | 1013.9 hPa | 0 mm | - | 0 W/m² | - |
| 1777887636 | 11.67° C | 81% | 1013.9 hPa | 0 mm | - | 0 W/m² | - |
| 1777887332 | 11.67° C | 82% | 1013.9 hPa | 0 mm | - | 0 W/m² | - |
| 1777887027 | 11.67° C | 81% | 1014.1 hPa | 0 mm | - | 0 W/m² | - |
| 1777886723 | 11.67° C | 81% | 1013.9 hPa | 0 mm | - | 0 W/m² | - |
| 1777886421 | 11.67° C | 81% | 1013.9 hPa | 0 mm | - | 0 W/m² | - |
| 1777886119 | 11.67° C | 80% | 1014 hPa | 0 mm | - | 0 W/m² | - |
* Rain latest hour (hover to see other rain measurements)
** Current wind speed in m/s (hover to see current wind gust speed)